Weather History for Beatrice, NE

Change the Weather History Date:

Monday, December 6, 1999

  Actual Average Record
Temperature  
Mean Temperature 32 °F -  
Max Temperature 44 °F 38 °F 60 °F (1963)
Min Temperature 19 °F 21 °F -9 °F (1950)
Degree Days  
Heating Degree Days 34    
Moisture  
Dew Point 20 °F    
Average Humidity 65    
Maximum Humidity 86    
Minimum Humidity 37    
Precipitation  
Precipitation 0.00 in - - ()
Sea Level Pressure  
Sea Level Pressure 30.03 in    
Wind  
Wind Speed 7 mph (SSE)    
Max Wind Speed 21 mph    
Max Gust Speed 29 mph    
Visibility 10 miles    
Events      
Averages and records for this station are not official NWS values.
T = Trace of Precipitation, MM = Missing Value Source: NWS Daily Summary

Daily Weather History Graph

Daily Weather History Graph

Search for Another Location

Airport:

Trip Planner

Search our weather history database for the weather conditions in past years. The results will help you decide how hot, cold, wet, or windy it might be!

Date:

Astronomy

Dec. 06, 1999 Rise Set
Actual Time 7:35 AM CST 5:00 PM CST
Civil Twilight 7:04 AM CST 5:31 PM CST
Nautical Twilight 6:30 AM CST 6:05 PM CST
Astronomical Twilight 5:57 AM CST 6:38 PM CST
Moon 6:10 AM CST (12/6) 4:37 PM CST (12/6)
Length of Visible Light 10h 26m
Length of Day
9h 25m
Waning Crescent, 1% of the Moon is Illuminated
Dec 6
Waning Crescent
Dec 7
New
Dec 15
First Quarter
Dec 22
Full
Dec 29
Last Quarter

Hourly Weather History & Observations

Time (CST) Temp. Windchill Dew Point Humidity Pressure Visibility Wind Dir Wind Speed Gust Speed Precip Events Conditions
12:11 AM 21.2 °F - 12.2 °F 68% 30.17 in 10.0 mi Calm Calm - N/A   Clear
12:49 AM 19.4 °F 14.3 °F 14.0 °F 80% 30.16 in 10.0 mi SE 3.5 mph - N/A   Clear
1:11 AM 21.2 °F 14.9 °F 14.0 °F 74% 30.15 in 10.0 mi ESE 4.6 mph - N/A   Clear
1:31 AM 23.0 °F 18.4 °F 17.6 °F 80% 30.15 in 10.0 mi East 3.5 mph - N/A   Clear
1:48 AM 23.0 °F - 15.8 °F 74% 30.15 in 10.0 mi Calm Calm - N/A   Clear
2:10 AM 21.2 °F - 15.8 °F 80% 30.15 in 10.0 mi Calm Calm - N/A   Clear
2:49 AM 21.2 °F 16.4 °F 15.8 °F 80% 30.16 in 10.0 mi SE 3.5 mph - N/A   Clear
3:13 AM 21.2 °F 14.9 °F 15.8 °F 80% 30.15 in 10.0 mi ESE 4.6 mph - N/A   Clear
3:30 AM 21.2 °F 16.4 °F 17.6 °F 86% 30.14 in 10.0 mi ESE 3.5 mph - N/A   Clear
3:48 AM 21.2 °F 16.4 °F 15.8 °F 80% 30.14 in 10.0 mi ESE 3.5 mph - N/A   Clear
4:10 AM 19.4 °F 11.5 °F 15.8 °F 86% 30.13 in 10.0 mi ESE 5.8 mph - N/A   Clear
4:28 AM 21.2 °F 13.6 °F 17.6 °F 86% 30.12 in 10.0 mi SE 5.8 mph - N/A   Clear
4:53 AM 21.2 °F 13.6 °F 17.6 °F 86% 30.13 in 10.0 mi SE 5.8 mph - N/A   Clear
5:08 AM 23.0 °F 17.0 °F 17.6 °F 80% 30.12 in 10.0 mi SE 4.6 mph - N/A   Clear
5:29 AM 23.0 °F 15.8 °F 17.6 °F 80% 30.12 in 10.0 mi ESE 5.8 mph - N/A   Clear
5:48 AM 23.0 °F 14.7 °F 17.6 °F 80% 30.12 in 10.0 mi SE 6.9 mph - N/A   Clear
6:10 AM 23.0 °F 13.9 °F 17.6 °F 80% 30.11 in 10.0 mi ESE 8.1 mph - N/A   Clear
6:33 AM 23.0 °F 14.7 °F 17.6 °F 80% 30.11 in 10.0 mi SE 6.9 mph - N/A   Clear
6:54 AM 23.0 °F 14.7 °F 17.6 °F 80% 30.11 in 10.0 mi SSE 6.9 mph - N/A   Clear
7:08 AM 24.8 °F 16.9 °F 17.6 °F 74% 30.11 in 10.0 mi SSE 6.9 mph - N/A   Clear
7:30 AM 24.8 °F 17.9 °F 19.4 °F 80% 30.10 in 10.0 mi SE 5.8 mph - N/A   Clear
7:48 AM 24.8 °F 16.9 °F 19.4 °F 80% 30.10 in 10.0 mi SSE 6.9 mph - N/A   Clear
8:10 AM 26.6 °F 17.5 °F 19.4 °F 74% 30.10 in 10.0 mi SSE 9.2 mph - N/A   Clear
8:50 AM 28.4 °F 18.5 °F 21.2 °F 74% 30.10 in 10.0 mi South 11.5 mph - N/A   Clear
9:30 AM 32.0 °F 22.5 °F 23.0 °F 69% 30.10 in 10.0 mi South 12.7 mph - N/A   Clear
9:48 AM 33.8 °F 24.8 °F 21.2 °F 60% 30.10 in 10.0 mi South 12.7 mph 19.6 mph N/A   Clear
10:11 AM 37.4 °F 27.8 °F 23.0 °F 56% 30.10 in 10.0 mi South 17.3 mph 20.7 mph N/A   Clear
10:28 AM 39.2 °F 29.8 °F 21.2 °F 49% 30.10 in 10.0 mi South 18.4 mph 25.3 mph N/A   Clear
10:49 AM 41.0 °F 31.6 °F 21.2 °F 45% 30.09 in 10.0 mi South 20.7 mph 24.2 mph N/A   Clear
11:08 AM 42.8 °F 34.8 °F 19.4 °F 39% 30.08 in 10.0 mi South 17.3 mph 28.8 mph N/A   Clear
11:33 AM 41.0 °F 32.2 °F 19.4 °F 42% 30.06 in 10.0 mi South 18.4 mph 28.8 mph N/A   Clear
11:51 AM 42.8 °F 34.8 °F 21.2 °F 42% 30.06 in 10.0 mi South 17.3 mph 26.5 mph N/A   Clear
12:11 PM 42.8 °F 34.5 °F 21.2 °F 42% 30.04 in 10.0 mi South 18.4 mph 26.5 mph N/A   Clear
12:33 PM 44.6 °F 36.9 °F 21.2 °F 39% 30.03 in 10.0 mi South 18.4 mph 28.8 mph N/A   Clear
1:08 PM 44.6 °F 37.2 °F 21.2 °F 39% 30.00 in 10.0 mi South 17.3 mph 28.8 mph N/A   Clear
1:48 PM 44.6 °F 36.6 °F 21.2 °F 39% 29.97 in 10.0 mi SSE 19.6 mph 28.8 mph N/A   Clear
2:31 PM 44.6 °F 36.4 °F 19.4 °F 37% 29.93 in 10.0 mi SSE 20.7 mph 28.8 mph N/A   Clear
3:10 PM 44.6 °F 37.8 °F 19.4 °F 37% 29.94 in 10.0 mi South 15.0 mph 24.2 mph N/A   Clear
3:31 PM 44.6 °F 37.4 °F 19.4 °F 37% 29.94 in 10.0 mi South 16.1 mph - N/A   Clear
3:50 PM 44.6 °F 37.4 °F 21.2 °F 39% 29.95 in 10.0 mi South 16.1 mph 21.9 mph N/A   Clear
4:32 PM 42.8 °F 35.1 °F 19.4 °F 39% 29.93 in 10.0 mi South 16.1 mph 26.5 mph N/A   Clear
4:49 PM 41.0 °F 31.9 °F 19.4 °F 42% 29.92 in 10.0 mi SSE 19.6 mph 27.6 mph N/A   Clear
5:11 PM 39.2 °F 30.5 °F 21.2 °F 49% 29.92 in 10.0 mi South 16.1 mph 20.7 mph N/A   Clear
5:31 PM 39.2 °F 31.6 °F 21.2 °F 49% 29.92 in 10.0 mi South 12.7 mph - N/A   Clear
6:09 PM 35.6 °F 28.6 °F 21.2 °F 56% 29.93 in 10.0 mi South 9.2 mph - N/A   Clear
6:31 PM 33.8 °F 25.8 °F 21.2 °F 60% 29.91 in 10.0 mi South 10.4 mph - N/A   Clear
6:49 PM 33.8 °F 26.4 °F 21.2 °F 60% 29.91 in 10.0 mi South 9.2 mph - N/A   Clear
8:09 PM 30.2 °F 21.9 °F 21.2 °F 69% 29.91 in 10.0 mi South 9.2 mph - N/A   Clear
8:31 PM 30.2 °F 21.9 °F 21.2 °F 69% 29.90 in 10.0 mi South 9.2 mph - N/A   Clear
8:49 PM 32.0 °F 24.8 °F 24.8 °F 75% 29.89 in 10.0 mi South 8.1 mph - N/A   Clear
9:10 PM 30.2 °F 22.6 °F 21.2 °F 69% 29.89 in 10.0 mi South 8.1 mph - N/A   Clear
9:29 PM 28.4 °F 21.2 °F 21.2 °F 74% 29.89 in 10.0 mi South 6.9 mph - N/A   Clear
9:50 PM 28.4 °F 21.2 °F 21.2 °F 74% 29.89 in 10.0 mi SSE 6.9 mph - N/A   Clear
10:09 PM 28.4 °F 21.2 °F 23.0 °F 80% 29.89 in 10.0 mi South 6.9 mph - N/A   Clear
10:52 PM 30.2 °F 22.6 °F 24.8 °F 80% 29.88 in 10.0 mi South 8.1 mph - N/A   Clear
11:13 PM 30.2 °F 22.6 °F 23.0 °F 75% 29.88 in 10.0 mi SSE 8.1 mph - N/A   Clear
11:30 PM 30.2 °F 24.3 °F 24.8 °F 80% 29.88 in 10.0 mi South 5.8 mph - N/A   Clear